| time (UTC) | temp C | wind direction | speed KPH | gust KPH | rain 1hr cm | rain 24hr cm | rain mn cm | humidity % | barometer mb |
| 20260507041052 | 13 | 64 | 1.6 | 3.2 | 0.00 | 0.00 | 0.00 | 97 | 1008.2 |
| 20260507040549 | 13 | 63 | 0.0 | 1.6 | 0.00 | 0.00 | 0.00 | 97 | 1008.0 |
| 20260507040045 | 13 | 106 | 0.0 | 1.6 | 0.00 | 0.00 | 0.00 | 97 | 1008.0 |
| 20260507035541 | 13 | 97 | 0.0 | 1.6 | 0.00 | 0.13 | 0.13 | 97 | 1008.0 |
| 20260507035037 | 13 | 128 | 0.0 | 0.0 | 0.00 | 0.13 | 0.13 | 97 | 1008.2 |
| 20260507034534 | 13 | 101 | 0.0 | 0.0 | 0.00 | 0.13 | 0.13 | 97 | 1008.3 |
| 20260507034032 | 13 | 84 | 0.0 | 1.6 | 0.00 | 0.13 | 0.13 | 97 | 1007.9 |
| 20260507033530 | 13 | 57 | 0.0 | 1.6 | 0.00 | 0.13 | 0.13 | 97 | 1008.1 |
| 20260507033027 | 13 | 81 | 1.6 | 1.6 | 0.00 | 0.13 | 0.13 | 97 | 1008.1 |
| 20260507032524 | 13 | 124 | 1.6 | 3.2 | 0.00 | 0.13 | 0.13 | 97 | 1008.2 |
| 20260507032020 | 13 | 102 | 0.0 | 0.0 | 0.00 | 0.13 | 0.13 | 97 | 1008.3 |
| 20260507031516 | 13 | 85 | 0.0 | 1.6 | 0.00 | 0.13 | 0.13 | 97 | 1008.5 |
| 20260507031014 | 13 | 92 | 0.0 | 1.6 | 0.00 | 0.13 | 0.13 | 97 | 1008.4 |
| 20260507030510 | 13 | 81 | 0.0 | 0.0 | 0.00 | 0.13 | 0.13 | 97 | 1008.4 |
| 20260507030008 | 13 | 65 | 0.0 | 1.6 | 0.00 | 0.13 | 0.13 | 97 | 1008.3 |
| 20260507025505 | 13 | 73 | 0.0 | 0.0 | 0.00 | 0.13 | 0.13 | 97 | 1008.3 |
| 20260507025003 | 13 | 79 | 1.6 | 1.6 | 0.00 | 0.13 | 0.13 | 97 | 1008.3 |
| 20260507024500 | 13 | 112 | 0.0 | 1.6 | 0.00 | 0.13 | 0.13 | 97 | 1008.3 |
| 20260507023956 | 13 | 108 | 1.6 | 3.2 | 0.00 | 0.13 | 0.13 | 97 | 1008.4 |
| 20260507023452 | 13 | 105 | 0.0 | 1.6 | 0.00 | 0.13 | 0.13 | 97 | 1008.4 |
| 20260507022950 | 13 | 96 | 0.0 | 3.2 | 0.00 | 0.13 | 0.13 | 97 | 1008.4 |
| 20260507022447 | 13 | 97 | 3.2 | 4.8 | 0.00 | 0.13 | 0.13 | 97 | 1008.2 |
| 20260507021942 | 13 | 108 | 1.6 | 3.2 | 0.00 | 0.13 | 0.13 | 97 | 1008.4 |
| 20260507021437 | 13 | 112 | 0.0 | 3.2 | 0.00 | 0.13 | 0.13 | 97 | 1008.4 |
| 20260507020936 | 13 | 78 | 0.0 | 0.0 | 0.00 | 0.13 | 0.13 | 97 | 1008.6 |
| 20260507020432 | 13 | 72 | 0.0 | 0.0 | 0.00 | 0.13 | 0.13 | 97 | 1008.6 |
| 20260507015929 | 13 | 128 | 0.0 | 1.6 | 0.00 | 0.13 | 0.13 | 97 | 1008.4 |
| 20260507015427 | 13 | 90 | 0.0 | 0.0 | 0.00 | 0.13 | 0.13 | 97 | 1008.0 |
| 20260507014924 | 13 | 86 | 0.0 | 0.0 | 0.00 | 0.13 | 0.13 | 97 | 1008.2 |
| 20260507014420 | 13 | 86 | 0.0 | 0.0 | 0.00 | 0.13 | 0.13 | 97 | 1008.5 |
| 20260507013917 | 13 | 88 | 0.0 | 3.2 | 0.00 | 0.13 | 0.13 | 97 | 1008.6 |
| 20260507013414 | 13 | 89 | 0.0 | 0.0 | 0.00 | 0.13 | 0.13 | 97 | 1008.4 |
| 20260507012912 | 13 | 96 | 0.0 | 3.2 | 0.00 | 0.13 | 0.13 | 97 | 1008.4 |
| 20260507012408 | 13 | 101 | 0.0 | 1.6 | 0.00 | 0.13 | 0.13 | 97 | 1008.5 |
| 20260507011905 | 13 | 83 | 1.6 | 3.2 | 0.00 | 0.13 | 0.13 | 97 | 1008.6 |
| 20260507011401 | 13 | 102 | 1.6 | 3.2 | 0.00 | 0.13 | 0.13 | 97 | 1008.5 |
| 20260507010901 | 13 | 71 | 0.0 | 1.6 | 0.00 | 0.13 | 0.13 | 97 | 1008.6 |
| 20260507010357 | 13 | 82 | 1.6 | 1.6 | 0.00 | 0.13 | 0.13 | 97 | 1008.8 |
| 20260507005855 | 13 | 93 | 0.0 | 6.4 | 0.00 | 0.13 | 0.13 | 97 | 1008.7 |
| 20260507005351 | 13 | 126 | 0.0 | 4.8 | 0.00 | 0.13 | 0.13 | 97 | 1008.8 |
| 20260507004848 | 13 | 99 | 1.6 | 3.2 | 0.00 | 0.13 | 0.13 | 97 | 1009.0 |
| 20260507004345 | 13 | 134 | 0.0 | 0.0 | 0.00 | 0.13 | 0.13 | 97 | 1008.9 |
| 20260507003842 | 13 | 172 | 1.6 | 1.6 | 0.00 | 0.13 | 0.13 | 97 | 1008.6 |
| 20260507003338 | 12 | 121 | 3.2 | 3.2 | 0.00 | 0.13 | 0.13 | 97 | 1008.7 |
| 20260507002833 | 12 | 100 | 0.0 | 3.2 | 0.00 | 0.13 | 0.13 | 97 | 1008.6 |
| 20260507002329 | 12 | 110 | 0.0 | 1.6 | 0.00 | 0.13 | 0.13 | 97 | 1008.4 |
| 20260507001827 | 12 | 41 | 1.6 | 3.2 | 0.00 | 0.13 | 0.13 | 97 | 1008.4 |
| 20260507001323 | 12 | 97 | 4.8 | 6.4 | 0.00 | 0.13 | 0.13 | 97 | 1008.5 |
| 20260507000820 | 12 | 63 | 3.2 | 4.8 | 0.00 | 0.13 | 0.13 | 97 | 1008.4 |
| 20260507000315 | 12 | 78 | 0.0 | 4.8 | 0.00 | 0.13 | 0.13 | 97 | 1008.6 |
| 20260506235812 | 13 | 124 | 1.6 | 11.3 | 0.00 | 0.13 | 0.13 | 97 | 1008.7 |
| 20260506235308 | 13 | 98 | 0.0 | 4.8 | 0.00 | 0.13 | 0.13 | 97 | 1008.6 |
| 20260506234805 | 13 | 124 | 3.2 | 6.4 | 0.00 | 0.13 | 0.13 | 97 | 1008.7 |
| 20260506234302 | 13 | 77 | 0.0 | 1.6 | 0.00 | 0.13 | 0.13 | 97 | 1008.6 |
| 20260506233800 | 13 | 94 | 0.0 | 1.6 | 0.00 | 0.13 | 0.13 | 97 | 1008.7 |
| 20260506233250 | 13 | 113 | 3.2 | 6.4 | 0.00 | 0.13 | 0.13 | 97 | 1008.3 |
| 20260506232748 | 13 | 134 | 1.6 | 11.3 | 0.00 | 0.13 | 0.13 | 96 | 1008.3 |
| 20260506232248 | 13 | 85 | 0.0 | 6.4 | 0.00 | 0.13 | 0.13 | 96 | 1008.3 |
| 20260506231745 | 13 | 301 | 1.6 | 9.7 | 0.00 | 0.13 | 0.13 | 96 | 1008.5 |
| 20260506231243 | 13 | 98 | 1.6 | 4.8 | 0.00 | 0.13 | 0.13 | 96 | 1008.4 |
| 20260506230740 | 13 | 64 | 3.2 | 12.9 | 0.00 | 0.13 | 0.13 | 96 | 1008.3 |
| 20260506230237 | 13 | 97 | 0.0 | 4.8 | 0.00 | 0.13 | 0.13 | 96 | 1008.5 |
| 20260506225733 | 13 | 125 | 0.0 | 3.2 | 0.00 | 0.13 | 0.13 | 96 | 1008.5 |
| 20260506225230 | 13 | 98 | 0.0 | 11.3 | 0.00 | 0.13 | 0.13 | 96 | 1008.5 |
| 20260506224727 | 13 | 124 | 1.6 | 4.8 | 0.00 | 0.13 | 0.13 | 95 | 1008.5 |
| 20260506224224 | 13 | 110 | 0.0 | 4.8 | 0.00 | 0.13 | 0.13 | 95 | 1008.4 |
| 20260506223720 | 13 | 62 | 1.6 | 1.6 | 0.00 | 0.13 | 0.13 | 95 | 1008.3 |
| 20260506223216 | 13 | 76 | 0.0 | 1.6 | 0.00 | 0.13 | 0.13 | 95 | 1008.4 |
| 20260506222713 | 13 | 83 | 0.0 | 4.8 | 0.18 | 0.13 | 0.13 | 95 | 1008.2 |
| 20260506222209 | 13 | 100 | 1.6 | 1.6 | 0.18 | 0.13 | 0.13 | 95 | 1008.3 |
| 20260506221707 | 13 | 89 | 0.0 | 1.6 | 0.00 | 0.10 | 0.10 | 95 | 1008.1 |
| 20260506221205 | 13 | 85 | 1.6 | 3.2 | 0.00 | 0.10 | 0.10 | 95 | 1008.4 |
| 20260506220701 | 13 | 62 | 3.2 | 9.7 | 0.00 | 0.10 | 0.10 | 95 | 1008.2 |
| 20260506220156 | 13 | 100 | 1.6 | 3.2 | 0.00 | 0.10 | 0.10 | 95 | 1008.3 |
| 20260506215653 | 13 | 102 | 1.6 | 3.2 | 0.00 | 0.10 | 0.10 | 95 | 1008.5 |
| 20260506215148 | 13 | 98 | 0.0 | 4.8 | 0.00 | 0.10 | 0.10 | 94 | 1008.5 |
| 20260506214646 | 13 | 191 | 6.4 | 11.3 | 0.00 | 0.10 | 0.10 | 94 | 1008.6 |
| 20260506214143 | 13 | 75 | 0.0 | 3.2 | 0.18 | 0.10 | 0.10 | 94 | 1008.7 |
| 20260506213641 | 13 | 97 | 0.0 | 0.0 | 0.18 | 0.10 | 0.10 | 94 | 1008.9 |
| 20260506213138 | 13 | 56 | 0.0 | 9.7 | 0.00 | 0.08 | 0.08 | 94 | 1008.8 |
| 20260506212636 | 13 | 88 | 3.2 | 4.8 | 0.00 | 0.08 | 0.08 | 93 | 1008.9 |
| 20260506212130 | 13 | 86 | 0.0 | 4.8 | 0.00 | 0.08 | 0.08 | 93 | 1008.9 |
| 20260506211626 | 14 | 133 | 3.2 | 4.8 | 0.13 | 0.08 | 0.08 | 93 | 1008.7 |
| 20260506211123 | 14 | 104 | 0.0 | 3.2 | 0.13 | 0.08 | 0.08 | 93 | 1009.0 |
| 20260506210620 | 14 | 90 | 3.2 | 3.2 | 0.00 | 0.05 | 0.05 | 92 | 1009.1 |
| 20260506210116 | 14 | 89 | 3.2 | 4.8 | 0.00 | 0.05 | 0.05 | 92 | 1009.0 |
| 20260506205613 | 14 | 98 | 0.0 | 11.3 | 0.00 | 0.05 | 0.05 | 91 | 1009.0 |
| 20260506205108 | 14 | 165 | 0.0 | 6.4 | 0.00 | 0.05 | 0.05 | 91 | 1009.2 |
| 20260506204606 | 14 | 345 | 3.2 | 6.4 | 0.00 | 0.05 | 0.05 | 91 | 1009.1 |
| 20260506204103 | 14 | 20 | 1.6 | 4.8 | 0.00 | 0.05 | 0.05 | 91 | 1009.2 |
| 20260506203602 | 14 | 113 | 4.8 | 11.3 | 0.00 | 0.05 | 0.05 | 91 | 1009.3 |
| 20260506203058 | 14 | 123 | 3.2 | 3.2 | 0.00 | 0.05 | 0.05 | 91 | 1009.1 |
| 20260506202555 | 14 | 87 | 0.0 | 6.4 | 0.00 | 0.05 | 0.05 | 92 | 1009.3 |
| 20260506202052 | 14 | 104 | 3.2 | 11.3 | 0.00 | 0.05 | 0.05 | 91 | 1009.1 |
| 20260506201549 | 14 | 310 | 3.2 | 4.8 | 0.00 | 0.05 | 0.05 | 91 | 1009.2 |
| 20260506201046 | 14 | 116 | 1.6 | 4.8 | 0.00 | 0.05 | 0.05 | 91 | 1009.3 |
| 20260506200542 | 15 | 96 | 1.6 | 16.1 | 0.18 | 0.05 | 0.05 | 91 | 1009.4 |
| 20260506200039 | 15 | 164 | 3.2 | 6.4 | 0.18 | 0.05 | 0.05 | 90 | 1009.6 |
| 20260506195536 | 15 | 80 | 0.0 | 4.8 | 0.00 | 0.03 | 0.03 | 90 | 1009.5 |
| 20260506195032 | 15 | 293 | 3.2 | 9.7 | 0.00 | 0.03 | 0.03 | 90 | 1009.3 |
| 20260506194530 | 15 | 113 | 6.4 | 12.9 | 0.00 | 0.03 | 0.03 | 90 | 1009.6 |
| 20260506194026 | 15 | 136 | 3.2 | 4.8 | 0.00 | 0.03 | 0.03 | 91 | 1009.6 |
| 20260506193523 | 15 | 92 | 0.0 | 4.8 | 0.00 | 0.03 | 0.03 | 91 | 1009.6 |
| 20260506193020 | 15 | 113 | 4.8 | 9.7 | 0.00 | 0.03 | 0.03 | 91 | 1009.7 |
| 20260506192517 | 15 | 121 | 0.0 | 1.6 | 0.13 | 0.03 | 0.03 | 90 | 1009.8 |
| 20260506192013 | 15 | 95 | 1.6 | 11.3 | 0.13 | 0.03 | 0.03 | 89 | 1009.9 |
| 20260506191510 | 15 | 81 | 0.0 | 9.7 | 0.00 | 0.00 | 0.00 | 88 | 1010.0 |
| 20260506191006 | 15 | 124 | 1.6 | 4.8 | 0.00 | 0.00 | 0.00 | 86 | 1009.7 |
| 20260506190503 | 15 | 84 | 0.0 | 11.3 | 0.00 | 0.00 | 0.00 | 85 | 1010.0 |
| 20260506190000 | 15 | 123 | 0.0 | 9.7 | 0.00 | 0.00 | 0.00 | 84 | 1009.8 |
| 20260506185457 | 16 | 136 | 3.2 | 4.8 | 0.00 | 0.00 | 0.00 | 83 | 1009.9 |
| 20260506184954 | 16 | 67 | 1.6 | 17.7 | 0.00 | 0.00 | 0.00 | 80 | 1010.0 |
| 20260506184451 | 16 | 91 | 0.0 | 1.6 | 0.00 | 0.00 | 0.00 | 79 | 1010.1 |
| 20260506183948 | 16 | 125 | 0.0 | 6.4 | 0.00 | 0.00 | 0.00 | 78 | 1010.2 |
| 20260506183444 | 16 | 44 | 3.2 | 6.4 | 0.00 | 0.00 | 0.00 | 76 | 1010.0 |
| 20260506182941 | 16 | 106 | 3.2 | 4.8 | 0.00 | 0.00 | 0.00 | 76 | 1010.3 |
| 20260506182438 | 16 | 75 | 1.6 | 12.9 | 0.00 | 0.00 | 0.00 | 76 | 1010.5 |
| 20260506181935 | 16 | 174 | 3.2 | 9.7 | 0.00 | 0.00 | 0.00 | 75 | 1010.1 |
| 20260506181433 | 17 | 132 | 6.4 | 11.3 | 0.00 | 0.00 | 0.00 | 75 | 1010.3 |
| 20260506180930 | 17 | 332 | 1.6 | 17.7 | 0.00 | 0.00 | 0.00 | 74 | 1010.7 |
| 20260506180426 | 17 | 72 | 1.6 | 11.3 | 0.00 | 0.00 | 0.00 | 74 | 1010.5 |
| 20260506175923 | 17 | 85 | 1.6 | 9.7 | 0.00 | 0.00 | 0.00 | 75 | 1010.5 |
| 20260506175420 | 17 | 20 | 8.0 | 12.9 | 0.00 | 0.00 | 0.00 | 73 | 1010.4 |
| 20260506174917 | 17 | 0 | 1.6 | 9.7 | 0.00 | 0.00 | 0.00 | 73 | 1010.6 |
| 20260506174414 | 17 | 61 | 1.6 | 9.7 | 0.00 | 0.00 | 0.00 | 73 | 1010.7 |
| 20260506173911 | 17 | 146 | 3.2 | 3.2 | 0.00 | 0.00 | 0.00 | 73 | 1010.8 |
| 20260506173408 | 18 | 31 | 1.6 | 11.3 | 0.00 | 0.00 | 0.00 | 71 | 1010.8 |
| 20260506172905 | 18 | 35 | 1.6 | 3.2 | 0.00 | 0.00 | 0.00 | 71 | 1010.9 |
| 20260506172402 | 18 | 89 | 4.8 | 11.3 | 0.00 | 0.00 | 0.00 | 70 | 1011.1 |
| 20260506171859 | 18 | 151 | 9.7 | 17.7 | 0.00 | 0.00 | 0.00 | 70 | 1011.1 |
| 20260506171356 | 18 | 290 | 4.8 | 6.4 | 0.00 | 0.00 | 0.00 | 69 | 1011.4 |
| 20260506170854 | 18 | 4 | 1.6 | 12.9 | 0.00 | 0.00 | 0.00 | 69 | 1011.3 |
| 20260506170350 | 19 | 163 | 4.8 | 11.3 | 0.00 | 0.00 | 0.00 | 69 | 1011.2 |
| 20260506165849 | 19 | 96 | 3.2 | 4.8 | 0.00 | 0.00 | 0.00 | 67 | 1011.0 |
| 20260506165347 | 19 | 308 | 3.2 | 11.3 | 0.00 | 0.00 | 0.00 | 68 | 1010.8 |
| 20260506164843 | 20 | 66 | 9.7 | 16.1 | 0.00 | 0.00 | 0.00 | 66 | 1011.0 |
| 20260506164339 | 20 | 264 | 1.6 | 9.7 | 0.00 | 0.00 | 0.00 | 65 | 1010.9 |
| 20260506163837 | 20 | 45 | 1.6 | 6.4 | 0.00 | 0.00 | 0.00 | 66 | 1011.2 |
| 20260506163332 | 19 | 52 | 6.4 | 12.9 | 0.00 | 0.00 | 0.00 | 67 | 1011.2 |
| 20260506162827 | 19 | 139 | 4.8 | 9.7 | 0.00 | 0.00 | 0.00 | 67 | 1011.4 |
| 20260506162326 | 18 | 182 | 3.2 | 6.4 | 0.00 | 0.00 | 0.00 | 68 | 1011.6 |
| 20260506161823 | 18 | 101 | 3.2 | 6.4 | 0.00 | 0.00 | 0.00 | 69 | 1011.6 |
| 20260506161320 | 18 | 72 | 1.6 | 17.7 | 0.00 | 0.00 | 0.00 | 68 | 1011.8 |
| 20260506160818 | 18 | 32 | 6.4 | 14.5 | 0.00 | 0.00 | 0.00 | 69 | 1011.5 |
| 20260506160314 | 19 | 61 | 3.2 | 6.4 | 0.00 | 0.00 | 0.00 | 67 | 1011.7 |
| 20260506155813 | 19 | 88 | 0.0 | 4.8 | 0.00 | 0.00 | 0.00 | 67 | 1011.9 |
| 20260506155309 | 19 | 79 | 3.2 | 6.4 | 0.00 | 0.00 | 0.00 | 67 | 1011.9 |
| 20260506153421 | 20 | 50 | 1.6 | 11.3 | 0.00 | 0.00 | 0.00 | 64 | 1011.8 |
| 20260506152919 | 20 | 153 | 8.0 | 14.5 | 0.00 | 0.00 | 0.00 | 64 | 1011.8 |
| 20260506152415 | 20 | 125 | 3.2 | 4.8 | 0.00 | 0.00 | 0.00 | 65 | 1011.9 |
| 20260506151914 | 20 | 155 | 1.6 | 9.7 | 0.00 | 0.00 | 0.00 | 65 | 1012.0 |
| 20260506151411 | 19 | 282 | 1.6 | 6.4 | 0.00 | 0.00 | 0.00 | 67 | 1011.8 |
| 20260506150908 | 19 | 115 | 3.2 | 12.9 | 0.00 | 0.00 | 0.00 | 67 | 1012.1 |
| 20260506150404 | 19 | 146 | 0.0 | 3.2 | 0.00 | 0.00 | 0.00 | 69 | 1012.1 |
| 20260506145901 | 20 | 105 | 9.7 | 12.9 | 0.00 | 0.00 | 0.00 | 66 | 1011.8 |
| 20260506145357 | 20 | 116 | 3.2 | 4.8 | 0.00 | 0.00 | 0.00 | 67 | 1012.1 |
| 20260506144855 | 19 | 254 | 1.6 | 9.7 | 0.00 | 0.00 | 0.00 | 67 | 1012.1 |
| 20260506144351 | 19 | 71 | 3.2 | 14.5 | 0.00 | 0.00 | 0.00 | 68 | 1012.1 |
| 20260506143850 | 18 | 72 | 1.6 | 11.3 | 0.00 | 0.00 | 0.00 | 69 | 1012.0 |
| 20260506143347 | 19 | 125 | 3.2 | 6.4 | 0.00 | 0.00 | 0.00 | 68 | 1012.1 |
| 20260506142845 | 19 | 168 | 4.8 | 14.5 | 0.00 | 0.00 | 0.00 | 67 | 1012.1 |
| 20260506142342 | 19 | 66 | 4.8 | 11.3 | 0.00 | 0.00 | 0.00 | 67 | 1012.2 |
| 20260506141841 | 18 | 84 | 0.0 | 4.8 | 0.00 | 0.00 | 0.00 | 71 | 1012.3 |
| 20260506141338 | 18 | 344 | 1.6 | 6.4 | 0.00 | 0.00 | 0.00 | 70 | 1012.3 |
| 20260506140836 | 18 | 113 | 4.8 | 6.4 | 0.00 | 0.00 | 0.00 | 70 | 1012.2 |
| 20260506140333 | 18 | 90 | 0.0 | 4.8 | 0.00 | 0.00 | 0.00 | 70 | 1012.1 |
| 20260506135830 | 18 | 136 | 4.8 | 12.9 | 0.00 | 0.00 | 0.00 | 71 | 1011.9 |
| 20260506135326 | 17 | 129 | 1.6 | 9.7 | 0.00 | 0.00 | 0.00 | 72 | 1012.1 |
| 20260506134823 | 17 | 91 | 4.8 | 12.9 | 0.00 | 0.00 | 0.00 | 72 | 1011.9 |
| 20260506134319 | 17 | 147 | 4.8 | 11.3 | 0.00 | 0.00 | 0.00 | 72 | 1012.0 |
| 20260506133817 | 18 | 77 | 1.6 | 4.8 | 0.00 | 0.00 | 0.00 | 72 | 1012.2 |
| 20260506133313 | 18 | 93 | 3.2 | 9.7 | 0.00 | 0.00 | 0.00 | 72 | 1012.2 |
| 20260506132810 | 18 | 114 | 1.6 | 9.7 | 0.00 | 0.00 | 0.00 | 72 | 1012.1 |
| 20260506132307 | 17 | 109 | 1.6 | 3.2 | 0.00 | 0.00 | 0.00 | 74 | 1012.4 |
| 20260506131805 | 17 | 67 | 1.6 | 12.9 | 0.00 | 0.00 | 0.00 | 73 | 1012.6 |
| 20260506131301 | 17 | 77 | 1.6 | 11.3 | 0.00 | 0.00 | 0.00 | 73 | 1012.6 |
| 20260506130758 | 17 | 62 | 6.4 | 14.5 | 0.00 | 0.00 | 0.00 | 74 | 1012.3 |
| 20260506130254 | 17 | 107 | 1.6 | 3.2 | 0.00 | 0.00 | 0.00 | 75 | 1012.6 |
| 20260506125753 | 17 | 120 | 1.6 | 4.8 | 0.00 | 0.00 | 0.00 | 76 | 1012.5 |
| 20260506125250 | 16 | 124 | 0.0 | 11.3 | 0.00 | 0.00 | 0.00 | 76 | 1012.4 |
| 20260506124749 | 16 | 102 | 0.0 | 3.2 | 0.00 | 0.00 | 0.00 | 77 | 1012.5 |
| 20260506124246 | 16 | 175 | 1.6 | 9.7 | 0.00 | 0.00 | 0.00 | 76 | 1012.5 |
| 20260506123743 | 16 | 101 | 0.0 | 3.2 | 0.00 | 0.00 | 0.00 | 77 | 1012.5 |
| 20260506123242 | 16 | 93 | 0.0 | 11.3 | 0.00 | 0.00 | 0.00 | 77 | 1012.4 |
| 20260506122738 | 16 | 46 | 1.6 | 3.2 | 0.00 | 0.00 | 0.00 | 79 | 1012.3 |
| 20260506122235 | 16 | 123 | 3.2 | 9.7 | 0.00 | 0.00 | 0.00 | 79 | 1012.4 |
| 20260506121733 | 16 | 93 | 3.2 | 11.3 | 0.00 | 0.00 | 0.00 | 80 | 1012.4 |
| 20260506121230 | 15 | 112 | 0.0 | 6.4 | 0.00 | 0.00 | 0.00 | 81 | 1012.7 |
| 20260506120727 | 15 | 75 | 8.0 | 12.9 | 0.00 | 0.00 | 0.00 | 81 | 1012.5 |
| 20260506120225 | 15 | 121 | 1.6 | 4.8 | 0.00 | 0.00 | 0.00 | 82 | 1012.6 |
| 20260506115723 | 15 | 110 | 3.2 | 6.4 | 0.00 | 0.00 | 0.00 | 83 | 1012.6 |
| 20260506115221 | 15 | 88 | 0.0 | 4.8 | 0.00 | 0.00 | 0.00 | 84 | 1012.6 |
| 20260506114718 | 15 | 143 | 1.6 | 6.4 | 0.00 | 0.00 | 0.00 | 85 | 1012.7 |
| 20260506114216 | 14 | 60 | 0.0 | 3.2 | 0.00 | 0.00 | 0.00 | 85 | 1012.9 |
| 20260506113714 | 14 | 98 | 0.0 | 1.6 | 0.00 | 0.00 | 0.00 | 86 | 1012.9 |
| 20260506113211 | 14 | 70 | 0.0 | 6.4 | 0.00 | 0.00 | 0.00 | 86 | 1012.8 |
| 20260506112707 | 14 | 181 | 4.8 | 9.7 | 0.00 | 0.00 | 0.00 | 86 | 1013.0 |
| 20260506112205 | 14 | 86 | 0.0 | 9.7 | 0.00 | 0.00 | 0.00 | 86 | 1012.8 |
| 20260506111702 | 14 | 145 | 3.2 | 4.8 | 0.00 | 0.00 | 0.00 | 86 | 1012.7 |
| 20260506111200 | 14 | 107 | 1.6 | 17.7 | 0.00 | 0.00 | 0.00 | 87 | 1012.9 |
| 20260506110657 | 13 | 151 | 0.0 | 9.7 | 0.00 | 0.00 | 0.00 | 88 | 1013.0 |
| 20260506110155 | 13 | 92 | 0.0 | 3.2 | 0.00 | 0.00 | 0.00 | 89 | 1012.9 |
| 20260506105651 | 13 | 259 | 3.2 | 4.8 | 0.00 | 0.00 | 0.00 | 89 | 1012.9 |
| 20260506105148 | 13 | 123 | 3.2 | 4.8 | 0.00 | 0.00 | 0.00 | 89 | 1012.9 |
| 20260506104646 | 13 | 87 | 0.0 | 9.7 | 0.00 | 0.00 | 0.00 | 89 | 1012.8 |
| 20260506104143 | 13 | 117 | 0.0 | 3.2 | 0.00 | 0.00 | 0.00 | 89 | 1012.7 |
| 20260506103640 | 13 | 99 | 0.0 | 1.6 | 0.00 | 0.00 | 0.00 | 89 | 1012.7 |
| 20260506103137 | 13 | 99 | 0.0 | 1.6 | 0.00 | 0.00 | 0.00 | 89 | 1012.6 |
| 20260506102635 | 13 | 93 | 0.0 | 1.6 | 0.00 | 0.00 | 0.00 | 89 | 1012.7 |
| 20260506102132 | 13 | 75 | 1.6 | 1.6 | 0.00 | 0.00 | 0.00 | 90 | 1012.6 |
| 20260506101629 | 13 | 98 | 0.0 | 4.8 | 0.00 | 0.00 | 0.00 | 90 | 1012.7 |
| 20260506101126 | 13 | 94 | 0.0 | 6.4 | 0.00 | 0.00 | 0.00 | 90 | 1012.6 |
| 20260506100625 | 13 | 116 | 0.0 | 4.8 | 0.00 | 0.00 | 0.00 | 90 | 1012.8 |
| 20260506100122 | 13 | 79 | 0.0 | 4.8 | 0.00 | 0.00 | 0.00 | 90 | 1012.5 |
| 20260506095621 | 13 | 100 | 0.0 | 3.2 | 0.00 | 0.00 | 0.00 | 90 | 1012.5 |
| 20260506095117 | 13 | 111 | 3.2 | 11.3 | 0.00 | 0.00 | 0.00 | 90 | 1012.5 |
| 20260506094614 | 13 | 93 | 0.0 | 3.2 | 0.00 | 0.00 | 0.00 | 89 | 1012.3 |
| 20260506094112 | 13 | 83 | 0.0 | 3.2 | 0.00 | 0.00 | 0.00 | 89 | 1012.6 |
| 20260506093610 | 13 | 88 | 0.0 | 9.7 | 0.00 | 0.00 | 0.00 | 89 | 1012.4 |
| 20260506093107 | 13 | 136 | 3.2 | 9.7 | 0.00 | 0.00 | 0.00 | 89 | 1012.5 |
| 20260506092605 | 13 | 100 | 4.8 | 6.4 | 0.00 | 0.00 | 0.00 | 89 | 1012.6 |
| 20260506092102 | 13 | 105 | 0.0 | 1.6 | 0.00 | 0.00 | 0.00 | 89 | 1012.6 |
| 20260506091600 | 13 | 53 | 0.0 | 4.8 | 0.00 | 0.00 | 0.00 | 88 | 1012.6 |
| 20260506091057 | 13 | 225 | 1.6 | 11.3 | 0.00 | 0.00 | 0.00 | 88 | 1012.8 |
| 20260506090555 | 13 | 100 | 1.6 | 12.9 | 0.00 | 0.00 | 0.00 | 88 | 1012.7 |
| 20260506090051 | 13 | 70 | 1.6 | 4.8 | 0.00 | 0.00 | 0.00 | 88 | 1012.5 |
| 20260506085548 | 13 | 104 | 0.0 | 3.2 | 0.00 | 0.00 | 0.00 | 87 | 1012.6 |
| 20260506085044 | 13 | 137 | 3.2 | 6.4 | 0.00 | 0.00 | 0.00 | 87 | 1012.8 |
| 20260506084541 | 13 | 81 | 0.0 | 4.8 | 0.00 | 0.00 | 0.00 | 87 | 1012.8 |
| 20260506084037 | 13 | 31 | 0.0 | 9.7 | 0.00 | 0.00 | 0.00 | 86 | 1012.8 |
| 20260506083535 | 13 | 8 | 0.0 | 4.8 | 0.00 | 0.00 | 0.00 | 86 | 1012.9 |
| 20260506083032 | 13 | 105 | 0.0 | 9.7 | 0.00 | 0.00 | 0.00 | 86 | 1013.1 |
| 20260506082529 | 14 | 289 | 1.6 | 11.3 | 0.00 | 0.00 | 0.00 | 86 | 1012.9 |
| 20260506082024 | 14 | 102 | 1.6 | 16.1 | 0.00 | 0.00 | 0.00 | 86 | 1012.8 |
| 20260506081523 | 14 | 136 | 1.6 | 4.8 | 0.00 | 0.00 | 0.00 | 86 | 1012.9 |
| 20260506081020 | 14 | 84 | 1.6 | 3.2 | 0.00 | 0.00 | 0.00 | 85 | 1013.0 |
| 20260506080517 | 14 | 157 | 1.6 | 4.8 | 0.00 | 0.00 | 0.00 | 85 | 1012.9 |
| 20260506073501 | 14 | 106 | 3.2 | 11.3 | 0.00 | 0.00 | 0.00 | 85 | 1013.0 |
| 20260506072958 | 14 | 83 | 0.0 | 0.0 | 0.00 | 0.00 | 0.00 | 84 | 1012.9 |
| 20260506072455 | 14 | 78 | 0.0 | 3.2 | 0.00 | 0.00 | 0.00 | 84 | 1012.9 |
| 20260506071953 | 15 | 77 | 3.2 | 9.7 | 0.00 | 0.00 | 0.00 | 84 | 1012.9 |
| 20260506071451 | 15 | 117 | 3.2 | 6.4 | 0.00 | 0.00 | 0.00 | 84 | 1012.9 |
| 20260506070947 | 15 | 121 | 0.0 | 3.2 | 0.00 | 0.00 | 0.00 | 83 | 1012.7 |
| 20260506070444 | 15 | 338 | 0.0 | 9.7 | 0.00 | 0.00 | 0.00 | 84 | 1012.6 |
| 20260506062422 | 14 | 83 | 1.6 | 4.8 | 0.00 | 0.00 | 0.00 | 83 | 1012.7 |
| 20260506061918 | 14 | 56 | 0.0 | 12.9 | 0.00 | 0.00 | 0.00 | 83 | 1012.6 |
| 20260506061414 | 14 | 58 | 0.0 | 3.2 | 0.00 | 0.00 | 0.00 | 83 | 1012.7 |
| 20260506060912 | 14 | 225 | 1.6 | 9.7 | 0.00 | 0.00 | 0.00 | 83 | 1012.6 |
| 20260506060410 | 14 | 129 | 1.6 | 4.8 | 0.00 | 0.00 | 0.00 | 83 | 1012.6 |
| 20260506051342 | 13 | 31 | 1.6 | 3.2 | 0.00 | 0.00 | 0.00 | 81 | 1013.2 |
| 20260506050839 | 14 | 98 | 0.0 | 4.8 | 0.00 | 0.00 | 0.00 | 81 | 1013.2 |
| 20260506050337 | 14 | 113 | 1.6 | 4.8 | 0.00 | 0.00 | 0.00 | 80 | 1013.1 |
| 20260506044827 | 14 | 159 | 1.6 | 12.9 | 0.00 | 0.00 | 0.00 | 78 | 1013.4 |
| 20260506044325 | 15 | 85 | 0.0 | 3.2 | 0.00 | 0.00 | 0.00 | 77 | 1013.3 |
| 20260506043822 | 15 | 97 | 1.6 | 3.2 | 0.00 | 0.00 | 0.00 | 76 | 1013.3 |
| 20260506043319 | 15 | 163 | 6.4 | 11.3 | 0.00 | 0.00 | 0.00 | 76 | 1013.3 |
| 20260506042818 | 15 | 147 | 1.6 | 3.2 | 0.00 | 0.00 | 0.00 | 75 | 1013.3 |
| 20260506042316 | 15 | 75 | 0.0 | 6.4 | 0.00 | 0.00 | 0.00 | 75 | 1013.4 |
| 20260506041815 | 15 | 53 | 0.0 | 6.4 | 0.00 | 0.00 | 0.00 | 74 | 1013.2 |